This demonstration page uses our WeatherBlox Daily Observations layout. Learn more.

Left ArrowRight Arrow

38.20091, -84.87328

Hourly Observations for August 7, 2019

Temp ( °F °C ) Dew Point ( °F °C ) Humidity (%) Winds ( mph kmh ) Pressure ( in mb ) Visibility ( mi km ) Precip ( " mm )
12:25 am 00:25 Mostly Clear with Mist and Fog 73 22.8 71 21.7 94 94 SW 3 6 29.79 1009 6 10 0.00 0.00
12:53 am 00:53 Mostly Clear with Mist and Fog 73 22.8 71 21.7 94 94 SW 7 11 29.79 1009 6 10 0.00 0.00
1:53 am 01:53 Clear with Mist and Fog 74 23.3 70 21.1 88 88 W 6 9 29.80 1009 4 6 0.00 0.00
2:53 am 02:53 Hazy 72 22.2 65 18.3 79 79 W 5 7 29.83 1010 6 10 0.00 0.00
3:53 am 03:53 Mostly Cloudy with Haze 70 21.1 63 17.2 79 79 WSW 9 15 29.82 1010 6 10 0.00 0.00
4:53 am 04:53 Cloudy 70 21.1 63 17.2 79 79 Calm 29.84 1010 10 16 0.00 0.00
5:53 am 05:53 Mostly Cloudy 68 20 63 17.2 84 84 SW 5 7 29.83 1010 9 14 0.00 0.00
6:53 am 06:53 Partly Cloudy with Mist and Fog 68 20 64 17.8 87 87 VRB 5 7 29.85 1011 6 10 0.00 0.00
7:53 am 07:53 Mostly Cloudy 70 21.1 64 17.8 82 82 VRB 3 6 29.85 1011 7 11 0.00 0.00
8:15 am 08:15 Cloudy with Haze 70 21.1 64 17.8 82 82 WSW 3 6 29.86 1011 6 10 0.00 0.00
8:53 am 08:53 Cloudy with Haze 71 21.7 65 18.3 81 81 W 6 9 29.86 1011 5 8 0.00 0.00
9:20 am 09:20 Mostly Cloudy with Haze 72 22.2 66 18.9 82 82 SW 5 7 29.86 1011 5 8 0.00 0.00
9:53 am 09:53 Mostly Cloudy with Haze 73 22.8 66 18.9 79 79 WSW 6 9 29.86 1011 5 8 0.00 0.00
10:31 am 10:31 Mostly Cloudy with Haze 75 23.9 67 19.4 76 76 W 6 9 29.86 1011 6 10 0.00 0.00
10:53 am 10:53 Cloudy with Haze 75 23.9 67 19.4 76 76 VRB 5 7 29.87 1011 6 10 0.00 0.00
11:53 am 11:53 Cloudy with Haze 77 25 68 20 74 74 SW 8 13 29.88 1012 5 8 0.00 0.00
12:53 pm 12:53 Mostly Cloudy with Haze 79 26.1 68 20 69 69 W 7 11 29.87 1012 5 8 0.00 0.00
1:01 pm 13:01 Hazy 80 26.7 69 20.6 69 69 VRB 6 9 29.85 1011 5 8 0.00 0.00
1:53 pm 13:53 Hazy 82 27.8 68 20 63 63 VRB 5 7 29.86 1011 6 10 0.00 0.00
3:53 pm 15:53 Hazy 85 29.4 67 19.4 55 55 W 6 9 29.83 1010 5 8 0.00 0.00
4:53 pm 16:53 Sunny 86 30 63 17.2 46 46 NW 9 15 29.82 1010 9 14 0.00 0.00
5:53 pm 17:53 Partly Cloudy 86 30 64 17.8 48 48 NW 7 11 29.82 1010 10 16 0.00 0.00
6:53 pm 18:53 Sunny 85 29.4 64 17.8 50 50 NW 8 13 29.81 1009 10 16 0.00 0.00
8:53 pm 20:53 Clear 77 25 66 18.9 69 69 W 3 6 29.83 1010 9 14 0.00 0.00
9:53 pm 21:53 Clear 72 22.2 66 18.9 82 82 Calm 29.84 1011 10 16 0.00 0.00
10:53 pm 22:53 Clear 70 21.1 66 18.9 87 87 Calm 29.85 1011 10 16 0.00 0.00
11:53 pm 23:53 Clear 69 20.6 66 18.9 90 90 SW 5 7 29.86 1011 8 13 0.00 0.00

Powered by AerisWeather